Voltar ao catálogo

STARLINK-32391

AtivoComunicaçõesVLEO
NORAD 61855·PAYLOAD·🇺🇸 United States

Lançado Nov 7, 2024 de Cape Canaveral Space Force Station

Loading…

Próximas Passagens (próximas 24 horas)

TLE

AtualizadoSource: CelesTrak SupGP

Época: Sep 14, 2026, 22:57 UTC

1 61855C 24202L   26257.95673611  .00027967  00000+0  10132-2 0  2571
2 61855  42.9993 248.9351 0001200 260.3747 168.9407 15.27558046    16

Acompanhe STARLINK-32391 em tempo real com AllMySat

Download on the App Store